Probability
0 0 0 0 0 0 0 0 0 0 0 0 0 0 0 0 0 0 0 0 1 1 1 2 4 5 7 8 8 7 5 4 2 1 1 1 1 0 0 0 0 0 0 0 0 0 0 0 0
0 0 0 0 0 0 0 0 0 0 0 0 0 0 0 0 0 0 0 0 0 0 0 2 4 6 8 9 9 8 6 4 3 1 1 1 0 0 0 0 0 0 0 0 0 0 0 0 0
0 0 0 0 0 0 0 0 0 0 0 0 0 0 0 0 0 0 0 0 0 0 0 1 3 6 8 9 9 8 7 5 4 3 2 1 0 0 0 0 0 0 0 0 0 0 0 0 0
0 0 0 0 0 0 0 0 0 0 0 0 0 0 0 0 0 0 0 0 0 0 0 1 2 4 7 8 7 7 7 6 4 4 3 1 0 0 0 0 0 0 0 0 0 0 0 0 0
0 0 0 0 0 0 0 0 0 0 0 0 0 0 0 0 0 0 0 0 0 0 0 0 1 3 5 6 6 7 7 7 5 4 3 1 0 0 0 0 1 0 0 0 0 0 0 0 0
0 0 0 0 0 0 0 0 0 0 0 0 0 0 0 0 0 0 0 0 0 1 1 1 1 1 3 4 5 7 8 8 6 5 4 2 1 0 0 0 0 0 0 0 0 0 0 0 0
0 0 0 0 0 0 0 0 0 0 0 0 0 0 0 0 0 0 0 0 0 1 2 3 2 1 1 1 3 4 5 6 5 4 3 2 1 0 0 0 0 0 0 0 0 0 0 0 0
0 0 0 0 0 0 0 0 0 0 0 0 0 0 0 0 0 0 0 0 0 1 2 3 3 1 1 1 1 1 1 2 2 1 1 1 1 0 0 0 0 0 0 0 0 0 0 0 0
0 0 0 0 0 0 0 0 0 0 0 0 0 0 0 0 0 0 0 0 0 0 1 2 3 3 2 1 0 0 0 0 0 0 0 1 1 0 0 0 0 0 0 0 0 0 0 0 0
0 0 0 0 0 0 0 0 0 0 0 0 0 0 0 0 0 0 0 0 0 0 0 1 3 3 3 1 0 0 0 0 0 0 0 1 1 0 0 0 0 0 0 0 0 0 0 0 0
0 0 0 0 0 0 0 0 0 0 0 0 0 0 0 0 0 0 0 0 0 0 0 2 4 4 3 2 1 1 0 0 0 0 0 0 0 0 0 0 0 0 0 0 0 0 0 0 0
0 0 0 0 0 0 0 0 0 0 0 0 0 0 0 0 0 0 0 0 1 0 0 2 4 5 4 2 2 2 1 0 0 0 0 0 0 0 0 0 0 0 0 0 0 0 0 0 0
0 0 0 0 0 0 0 0 0 0 0 0 0 0 0 0 0 0 0 0 0 0 0 1 2 2 2 1 1 1 1 0 0 0 0 0 0 0 0 0 0 0 0 0 0 0 0 0 0
0 0 0 0 0 0 0 0 0 0 0 0 0 0 0 0 0 0 0 0 0 0 0 0 0 0 0 0 0 0 0 0 0 0 0 0 0 0 0 0 0 0 0 0 0 0 0 0 0
0 0 0 0 0 0 0 0 0 0 0 0 0 0 0 0 0 0 0 0 0 0 1 1 0 0 0 0 0 0 0 0 0 0 0 0 0 0 0 0 0 0 0 0 0 0 0 0 0
0 0 0 0 0 0 0 0 0 0 0 0 0 0 0 0 0 0 0 0 0 0 1 2 1 1 1 1 1 0 0 0 0 0 0 0 0 0 0 0 0 0 0 0 0 0 0 0 0
0 0 0 0 0 0 0 0 0 0 0 0 0 0 0 0 0 0 0 0 0 0 1 2 3 3 4 3 2 1 0 0 0 0 0 0 0 0 0 0 0 0 0 0 0 0 0 0 0
0 0 0 0 0 0 0 0 0 0 0 0 0 0 0 0 0 0 0 0 0 0 1 2 3 4 5 5 4 2 1 0 0 0 0 0 0 0 0 0 0 0 0 0 0 0 0 0 0
0 0 0 0 0 0 0 0 0 0 0 0 0 0 0 0 0 0 0 0 0 0 0 1 2 3 4 5 5 3 1 0 0 0 0 0 0 0 0 0 0 0 0 0 0 0 0 0 0
0 0 0 0 0 0 0 0 0 0 0 0 0 0 0 0 0 0 0 0 0 0 0 1 2 2 2 3 4 3 1 0 1 0 0 0 0 0 0 0 0 0 0 0 0 0 0 0 0
0 0 0 0 0 0 0 0 0 0 0 0 0 0 0 0 0 0 0 0 0 0 0 1 2 2 2 2 3 3 1 0 0 0 0 0 0 0 0 0 0 0 0 0 0 0 0 0 0
0 0 0 0 0 0 0 0 0 0 0 0 0 0 0 0 0 0 0 0 0 0 0 0 1 2 2 2 3 2 1 0 0 0 0 0 0 0 0 0 0 0 0 0 0 0 0 0 0
0 0 0 0 0 0 0 0 0 0 0 0 0 0 0 0 0 0 0 0 0 0 0 0 1 2 3 2 2 1 0 0 0 0 0 0 0 0 0 0 0 0 0 0 0 0 0 0 0
0 0 0 0 0 0 0 0 0 0 0 0 0 0 0 0 0 0 0 0 0 0 0 0 1 2 2 1 1 1 0 0 0 0 0 0 0 0 0 0 0 0 0 0 0 0 0 0 0
0 0 0 0 0 0 0 0 0 0 0 0 0 0 0 0 0 0 0 0 0 0 0 0 1 2 2 1 0 0 0 0 0 0 0 0 0 0 0 0 0 0 0 0 0 0 0 0 0
0 0 0 0 0 0 0 0 0 0 0 0 0 0 0 0 0 0 0 0 0 0 0 0 1 2 2 1 0 0 0 0 0 0 0 0 0 0 0 0 0 0 0 0 0 0 0 0 0
0 0 0 0 0 0 0 0 0 0 0 0 0 0 0 0 0 0 0 0 0 0 0 0 0 1 1 1 1 1 1 0 0 0 0 0 0 0 0 0 0 0 0 0 0 0 0 0 0
0 0 0 0 0 0 0 0 0 0 0 0 0 0 0 0 0 0 0 0 0 0 0 0 0 0 0 0 1 1 1 0 0 0 0 0 0 0 0 0 0 0 0 0 0 0 0 0 0
0 0 0 0 0 0 0 0 0 0 0 0 0 0 0 0 0 0 0 0 0 0 0 0 0 0 0 0 1 1 0 0 0 0 0 0 0 0 0 0 0 0 0 0 0 0 0 0 0
0 0 0 0 0 0 0 0 0 0 0 0 0 0 0 0 0 0 0 0 0 0 0 0 0 0 0 1 1 1 0 0 0 0 0 0 0 0 0 0 0 0 0 0 0 0 0 0 0
Wind_Speed
5 2 1 2 3 3 3 2 2 1 1 1 2 1 1 1 2 2 4 3 3 2 1 1 0 2 3 5 5 6 6 6 6 6 7 7 8 8 8 8 7 8 8 8 8 8 8 8 8
3 2 1 2 4 5 3 3 3 1 1 1 1 0 1 1 2 3 2 4 3 1 0 1 1 2 4 5 6 5 6 6 6 6 6 6 7 7 8 8 7 7 7 7 7 8 8 8 8
1 1 1 2 3 4 3 2 2 1 1 1 1 1 1 2 2 2 4 3 2 1 1 1 2 3 4 5 6 6 6 6 6 6 6 6 6 7 7 7 7 7 7 7 7 7 7 7 8
1 1 1 2 4 3 2 0 1 1 1 0 1 1 1 3 3 4 4 3 2 2 1 3 4 4 4 5 6 6 6 5 5 5 5 6 5 6 7 7 7 7 7 7 8 7 7 7 7
0 1 3 3 4 2 1 2 2 2 1 1 1 1 2 3 4 4 3 3 2 2 2 3 5 4 5 5 6 6 6 6 6 6 5 5 6 6 6 6 6 6 7 7 7 7 7 7 7
1 1 3 5 5 3 1 2 2 2 1 0 1 2 2 3 3 3 3 2 2 2 2 3 5 4 4 5 6 6 6 6 7 7 6 6 6 6 6 6 6 6 6 6 7 7 7 6 6
1 2 3 4 4 3 1 0 2 2 2 1 1 2 2 2 3 3 3 3 3 3 3 3 2 3 4 5 5 6 6 7 7 7 7 7 7 7 6 6 6 6 6 6 7 6 6 6 6
0 2 3 4 4 3 1 1 0 2 2 2 2 2 1 1 2 2 2 3 3 3 3 3 3 2 1 3 5 6 7 7 7 7 7 6 6 6 7 6 6 6 6 6 6 6 6 6 6
1 3 5 4 4 2 2 1 0 2 1 1 1 2 3 2 2 2 2 2 3 3 3 2 2 2 1 2 4 4 5 6 5 5 6 4 3 4 4 6 6 6 6 6 6 6 6 6 6
1 4 4 1 1 1 1 2 1 2 3 3 2 0 1 2 2 2 1 0 1 2 2 2 1 1 1 2 2 2 2 3 2 2 3 2 2 3 3 5 6 6 6 5 6 6 5 3 3
1 2 1 1 1 1 2 2 2 4 5 4 4 2 1 2 3 3 2 2 1 1 1 2 1 1 1 1 1 1 1 1 2 2 2 2 2 2 2 2 3 3 3 3 3 3 2 2 2
2 1 1 1 0 1 3 3 4 6 6 4 4 2 3 4 4 4 4 3 2 1 1 1 1 1 1 1 1 1 1 1 1 1 2 2 2 2 2 1 2 1 1 1 1 1 2 2 2
2 1 1 1 1 2 3 5 6 8 6 4 2 3 4 5 5 4 4 3 3 2 2 1 0 0 1 1 1 1 1 1 1 1 1 2 2 2 2 2 2 1 1 1 1 1 2 2 2
1 2 2 3 3 2 3 5 5 8 4 4 4 5 5 6 5 4 4 4 4 3 3 2 1 1 1 1 1 0 1 1 1 1 2 2 1 2 2 2 2 1 1 1 1 1 1 1 1
2 1 3 3 2 2 3 7 7 6 4 5 6 6 6 6 6 6 5 5 5 4 3 3 2 2 2 1 1 0 1 1 1 1 2 2 2 2 2 2 2 1 1 1 1 1 1 1 1
2 3 3 1 2 1 5 9 4 3 5 7 7 6 6 7 7 6 5 5 5 5 4 4 2 3 3 2 2 1 1 1 1 1 2 2 2 2 2 2 2 1 1 1 1 1 1 1 0
3 4 5 3 2 2 6 10 6 4 6 8 8 7 7 7 7 5 5 5 5 5 5 4 4 4 3 2 2 2 1 1 1 1 1 2 2 2 2 2 2 2 1 1 1 1 1 0 0
3 5 5 6 2 5 9 13 10 7 8 10 9 8 7 8 7 5 5 4 4 4 5 5 5 4 3 3 2 2 2 1 1 1 1 2 2 3 2 2 2 2 2 1 1 1 1 0 0
4 6 8 6 3 6 12 15 14 10 9 11 10 9 9 8 6 5 4 4 3 3 4 5 5 5 4 3 3 2 2 2 2 2 2 2 3 3 3 2 2 2 2 2 2 1 1 1 0
5 7 8 5 2 6 11 16 13 10 10 10 11 10 9 7 5 4 4 4 4 4 4 4 5 5 5 4 3 2 2 2 2 2 2 2 3 3 3 3 2 2 2 2 2 2 1 0 0
7 8 7 7 6 5 9 12 8 6 7 8 8 8 8 7 6 6 5 5 5 5 5 4 5 5 5 4 3 2 2 1 2 2 2 3 3 3 3 3 3 3 2 2 2 2 2 1 1
7 4 6 6 7 5 4 10 7 5 6 6 7 6 6 6 6 5 5 5 5 5 5 5 5 5 5 5 5 5 4 3 3 3 2 3 3 3 3 3 3 3 3 3 3 2 2 2 1
3 1 4 5 6 7 6 8 8 2 6 6 5 5 6 5 5 5 5 5 5 5 4 5 5 5 5 5 5 6 5 3 2 2 3 3 3 3 3 3 3 3 3 3 3 3 2 2 2
2 0 0 1 3 8 6 8 9 4 5 4 4 4 4 4 4 4 3 3 3 3 3 4 4 4 5 5 5 6 6 4 4 4 4 3 2 3 4 3 3 3 3 3 3 3 3 3 3
3 2 2 3 4 7 2 8 11 4 3 4 5 5 4 3 3 3 2 2 2 3 3 4 5 5 5 5 6 6 6 5 6 5 5 4 3 3 4 4 4 3 3 3 3 3 3 3 3
6 6 4 5 6 5 3 10 7 2 3 4 4 4 4 3 3 3 3 3 3 3 4 5 5 5 5 6 6 5 5 4 4 5 4 5 4 3 4 4 4 3 3 3 3 3 3 3 4
6 6 3 2 2 6 8 8 8 4 4 3 3 3 3 3 3 3 3 3 3 3 4 5 5 5 5 6 6 5 5 5 4 4 4 4 3 3 4 4 4 4 3 3 3 3 4 4 4
3 5 4 5 5 8 8 8 6 3 4 3 3 3 4 3 3 3 3 3 3 3 3 4 5 5 5 5 5 4 5 5 4 4 4 4 4 3 4 4 4 4 4 4 4 3 3 4 4
7 6 6 5 4 6 8 7 3 4 3 3 3 4 4 4 4 3 3 3 3 3 3 3 4 4 4 4 4 4 5 4 4 4 4 4 3 4 4 4 4 4 4 4 4 4 4 4 4
7 8 9 6 6 6 7 9 1 2 2 2 4 4 4 4 4 3 3 3 3 3 3 3 4 4 4 4 4 4 4 4 4 4 4 4 4 4 4 4 4 4 4 4 5 4 4 4 5
Wind_Direction
336 334 264 225 204 209 220 193 201 174 159 35 3 302 260 305 317 11 41 19 357 335 277 191 144 116 119 117 115 110 109 112 118 119 114 112 111 108 106 104 101 98 96 94 91 90 87 84 83
344 313 219 218 227 216 205 196 200 199 60 89 67 281 198 101 18 17 19 358 341 342 293 194 84 115 123 122 120 115 111 109 113 115 114 113 112 110 106 106 102 98 96 96 94 92 91 87 83
4 348 220 198 222 235 202 154 179 112 103 195 140 3 341 27 44 22 7 347 345 22 27 64 68 111 118 117 117 114 112 111 111 110 109 109 112 112 107 105 102 97 93 91 91 90 90 89 85
246 151 144 217 212 240 268 128 156 178 159 221 202 154 111 40 14 5 7 7 15 24 27 68 60 82 98 110 112 111 114 113 109 111 108 100 102 110 106 102 99 95 92 89 86 87 86 84 83
8 178 187 210 229 227 266 289 243 239 217 130 214 198 126 68 23 29 28 26 31 28 39 73 60 65 75 95 98 99 102 102 99 99 99 97 91 96 101 99 96 93 88 87 85 84 85 85 82
131 191 213 224 218 219 240 278 240 244 231 191 217 208 117 74 42 26 29 35 38 39 42 68 61 56 71 89 91 90 90 90 89 85 82 85 86 85 89 94 93 89 84 80 81 83 84 85 84
176 191 225 227 227 232 224 274 241 247 241 272 278 213 144 106 34 21 32 49 46 44 42 39 59 62 63 77 81 83 84 83 81 79 75 71 75 76 78 78 81 86 84 78 76 78 79 82 84
11 178 193 211 221 226 108 138 9 299 293 2 285 239 171 77 40 35 51 63 55 43 39 37 43 44 76 96 77 76 78 77 79 78 75 72 76 75 72 75 73 72 78 78 75 76 75 72 74
215 214 215 207 214 197 137 187 36 345 247 279 304 335 8 83 95 76 57 48 40 29 25 27 41 40 60 93 89 83 78 75 79 80 75 82 101 95 85 72 66 68 69 76 77 74 74 74 76
217 222 223 209 215 201 206 253 260 231 248 248 240 316 38 141 166 165 152 114 14 357 2 8 16 33 75 100 108 101 91 90 88 92 91 89 91 84 81 74 64 64 64 71 76 75 78 78 86
177 226 206 196 192 238 249 257 238 236 250 253 254 238 192 202 205 205 209 216 229 287 336 353 11 25 52 105 109 98 94 93 91 89 85 90 90 89 85 88 81 72 69 73 84 91 83 72 67
164 227 242 235 214 246 256 250 247 248 264 302 283 220 207 215 219 219 220 228 227 235 268 329 1 47 50 75 113 122 122 116 110 99 96 107 106 99 97 87 76 69 56 60 62 75 78 82 77
194 215 247 259 256 257 250 250 262 257 263 272 250 213 220 231 236 234 233 228 221 220 226 249 259 124 103 100 108 127 131 133 135 127 118 120 125 122 114 99 81 71 60 57 59 64 79 81 79
151 196 260 269 260 240 243 263 249 251 249 237 227 231 238 243 244 242 237 231 226 226 221 219 207 187 159 146 141 145 135 136 146 127 119 124 129 127 124 113 104 91 75 49 47 71 62 86 86
146 218 257 233 235 233 257 255 229 240 228 238 241 240 243 247 243 237 234 236 230 231 226 216 204 188 178 173 166 158 147 154 148 133 127 120 121 136 138 130 121 102 102 99 77 77 68 94 105
194 222 246 196 236 224 254 264 243 223 231 247 249 247 246 247 243 241 239 242 239 231 226 216 205 194 186 174 169 169 179 175 158 149 146 140 136 140 144 138 134 127 128 129 123 125 88 61 127
198 253 260 266 216 234 248 268 263 229 241 253 254 253 251 252 250 246 242 238 239 231 222 215 211 201 189 176 171 167 175 178 167 159 168 158 150 154 154 146 138 143 138 137 131 126 123 137 58
241 259 258 261 255 257 259 265 269 252 249 256 256 254 252 250 249 249 247 239 238 231 223 216 211 205 190 173 168 168 171 181 177 174 187 176 166 168 164 147 145 148 145 140 136 116 92 125 46
233 246 265 274 298 271 266 273 272 266 252 252 251 250 251 252 252 246 241 232 229 225 221 219 212 200 189 182 187 192 195 194 194 194 197 189 183 180 174 162 159 162 157 154 150 137 132 79 316
227 255 271 285 290 281 285 280 272 257 246 246 250 252 254 255 255 244 233 224 224 222 219 216 213 206 201 199 196 204 200 199 202 195 197 196 193 190 185 172 169 172 164 156 158 161 174 160 231
238 248 267 286 307 266 292 277 251 242 243 250 255 255 256 252 249 244 236 228 225 224 223 221 215 209 205 196 177 161 177 177 195 199 199 201 194 191 185 181 174 177 178 178 179 190 187 191 206
247 247 260 274 285 282 293 289 271 253 259 253 256 254 258 253 248 246 241 237 230 227 222 221 215 208 202 195 191 184 194 204 211 211 209 201 198 197 189 190 189 185 189 188 187 201 214 199 197
246 303 261 267 264 273 241 259 273 249 267 269 263 263 264 261 254 248 242 240 237 227 218 214 212 207 201 201 203 199 206 211 202 204 208 206 201 200 195 195 196 197 199 198 193 197 206 213 217
147 123 230 205 235 256 233 240 272 239 258 282 278 283 287 278 268 261 254 246 238 229 218 211 208 210 207 204 206 211 210 205 202 206 208 210 208 203 201 200 202 203 204 207 204 206 206 216 224
187 198 261 246 235 250 178 241 259 262 264 276 288 294 304 292 275 271 265 258 251 238 223 212 209 212 212 208 210 216 219 213 214 214 213 210 211 213 207 202 205 206 209 210 207 211 217 223 229
201 205 218 251 263 277 225 244 258 264 291 292 295 302 313 308 288 274 263 255 250 243 231 220 217 219 216 213 215 219 222 218 220 219 220 218 218 219 208 206 208 207 207 209 211 216 221 226 232
185 208 229 238 289 273 254 262 278 256 280 299 315 323 316 310 299 280 269 258 253 246 240 230 226 227 225 222 217 217 220 221 223 220 221 223 221 213 202 201 203 203 205 211 211 216 220 224 232
228 169 169 204 241 260 268 261 256 245 263 283 302 300 304 313 306 290 275 269 262 256 248 235 231 232 231 225 220 219 220 223 222 217 219 222 217 209 202 201 203 203 207 214 217 220 222 226 234
177 188 201 207 235 248 269 265 227 230 239 253 268 293 308 307 300 292 286 279 272 269 257 238 230 233 233 230 225 222 221 220 218 217 218 217 212 208 204 203 206 208 211 212 217 224 223 226 233
215 208 194 211 224 230 260 270 107 225 253 278 295 304 308 305 301 298 294 286 272 264 260 250 238 234 233 232 222 220 219 218 217 220 220 215 211 209 206 203 205 211 214 211 213 219 223 225 231